map of SBAF home
SBAF - Airport
Location
City:  Rio de Janeiro, Rio de Janeiro, Brazil
Name:Campo Délio Jardim de Matos
Old (Alt.):Afonsos AFB
ICAO:SBAF

Details
Type:Airport (Aerodrome, Airfield)
Use:Military
Latitude:22°52'30"S (-22.875082)
Longitude:43°23'05"W (-43.384707)
Datum:WGS 1984
Elevation:110 ft (34 m)
Variation:22.74°W (WMM2015v2 magnetic declination)
-0.07° annual change
Runways:1
Longest:6565 × 171 ft (2001 × 52 m), paved

Time
Time Zone:UTC-3 (DST-2)
Local Time:

Weather
METAR:SBAF 041400Z 22011KT 9999 FEW010 SCT040 BKN090 26/23 Q1013
TAF:SBAF 040830Z 0412/0424 19007KT 9999 SCT030 TN26/0412Z TX29/0418Z PROB40
TEMPO 0412/0414 27008KT 8000 RA SCT010 BKN020
BECMG 0422/0424 SCT020
RMK PER

Related Locations
Nearby:
Farthest:IWO: 12119 mi / 19503 km
Iwo Jima [Iwo Jima AB], Iwo Jima Island, 13, JP

Find:

   beyond  
but within

Other Information
Maps:
NOTAMs:
Links:
Sources:

  
  • flag of Brazil
  • flag of Rio de Janeiro
  • flag of Rio de Janeiro
  

Sectional Chart

Flight Planning
at skyvector.com

Satellite Image

Google Maps Satellite view

 

Copyright © 2004-2019 Karl L. Swartz. All rights reserved.
The Great Circle Mapper name and logo are trademarks of the Great Circle Mapper.
All other trademarks mentioned herein belong to their respective owners.
Please see credits for attibutions and further copyright information.

  Follow gcmap on Facebook Follow gcmap on Twitter GCmap on LinkedIn

hCard Microformat

Geo Microformat